Wind_Speed
16 16 16 17 17 17 17 18 18 18 18 19 20 20 20 20 20 21 21 21 22 22 22 22 22 22 21 21 22 22 22 22 21 21 21 21 22 22
16 17 17 18 18 18 18 19 19 19 19 20 20 21 21 20 21 21 22 22 22 23 23 23 23 23 23 24 24 24 23 22 22 22 22 23 23 23
18 18 19 19 19 20 20 20 20 21 20 20 21 21 22 22 21 22 22 22 22 23 24 24 24 24 24 25 25 25 24 23 23 23 23 23 23 23
20 20 20 20 21 21 21 22 22 22 22 22 22 23 23 23 23 23 23 23 23 23 23 24 24 25 25 25 25 25 25 24 24 24 23 23 24 24
21 21 22 22 21 22 23 22 23 23 23 23 23 23 23 23 23 23 23 23 24 24 24 24 25 25 26 26 25 26 26 25 24 24 25 24 24 24
23 23 24 24 23 23 24 24 24 24 24 24 24 23 23 22 23 24 24 25 25 25 25 25 26 26 27 27 27 26 26 26 26 25 25 25 24 24
25 25 25 25 25 25 25 25 25 24 25 25 25 24 23 23 24 24 25 25 26 25 26 26 26 26 27 27 27 27 27 27 27 27 26 26 26 25
27 27 27 27 27 27 27 27 26 25 25 26 25 25 25 25 25 25 26 26 26 27 27 27 27 27 27 27 28 27 28 28 28 28 27 26 26 26
29 29 29 29 28 28 28 28 28 27 26 26 25 25 25 25 26 26 26 27 27 27 27 27 28 28 28 28 28 28 28 28 28 29 28 27 27 27
29 29 29 29 28 28 28 29 29 29 27 26 25 24 24 25 25 26 27 27 27 27 27 27 27 28 29 29 28 28 28 28 28 29 29 28 27 27
28 28 29 29 28 28 28 28 28 28 27 27 26 25 26 26 26 27 28 28 27 28 28 28 28 29 29 29 29 29 29 29 29 29 28 28 28 28
28 28 28 29 29 29 29 29 29 28 28 28 27 27 28 27 27 28 28 28 28 29 28 28 28 29 30 29 29 30 30 29 29 28 28 28 28 27
27 28 28 28 28 28 28 28 28 28 28 28 28 28 28 28 28 28 29 29 29 29 29 29 29 30 30 30 30 30 30 29 29 28 27 27 26 26
27 27 27 27 27 28 28 28 28 28 28 28 28 28 28 28 28 28 29 29 30 30 30 29 29 30 30 29 29 29 29 28 28 28 27 27 27 27
26 26 27 27 27 27 28 28 29 29 29 29 29 29 29 29 28 28 28 29 30 30 30 29 29 29 29 29 29 29 28 28 28 28 28 27 27 27
26 26 26 26 27 28 29 29 29 28 28 28 28 29 28 28 27 28 28 28 29 29 30 30 29 29 28 28 28 28 28 28 27 28 29 28 27 26
26 26 26 26 26 27 28 28 28 28 28 28 28 28 28 28 28 28 28 28 28 28 28 28 28 29 29 28 28 28 28 28 27 27 28 27 26 25
26 26 25 25 26 26 26 27 27 27 28 28 28 28 28 29 29 29 29 28 28 28 28 29 29 29 29 29 28 28 28 27 27 26 26 26 26 25
26 26 25 25 25 26 27 27 27 27 28 28 28 28 28 28 29 28 28 28 27 28 28 28 29 29 29 28 28 28 27 26 25 25 25 25 25 25
26 26 26 26 26 26 26 26 27 27 27 28 28 28 28 28 28 29 29 28 27 28 29 29 28 28 28 27 27 27 26 25 25 24 24 24 24 24
27 26 26 26 27 26 26 26 26 27 27 28 28 28 28 28 29 29 29 28 28 28 28 28 28 28 28 27 26 25 24 24 23 23 23 23 23 23
27 27 27 27 27 27 27 26 26 27 27 27 27 28 28 28 28 28 29 28 28 28 28 27 27 27 26 26 25 24 24 24 24 23 23 23 23 23
28 28 28 28 29 29 28 28 28 27 28 28 28 28 28 28 28 28 28 28 28 27 27 27 26 25 24 24 23 22 23 23 23 23 23 23 23 23
Wind_Direction
287 286 286 286 286 286 286 286 285 284 284 283 282 281 281 280 279 278 278 278 277 277 278 280 278 277 276 278 277 277 277 275 273 273 273 274 272 273
291 289 287 287 287 286 286 284 283 283 284 283 283 283 281 281 280 281 280 279 278 275 276 278 278 277 277 278 277 277 277 277 277 275 273 273 273 274
290 289 288 287 287 287 285 284 283 284 284 283 283 283 281 280 279 280 281 280 281 280 277 277 277 277 278 278 278 277 278 278 278 278 277 276 276 276
289 287 286 286 287 288 287 285 284 284 283 284 284 283 281 280 278 279 280 280 281 282 280 278 276 275 276 277 279 278 277 277 278 278 277 277 277 276
287 286 285 286 287 287 288 285 284 283 283 284 285 285 283 280 278 278 278 280 281 283 282 279 278 276 276 276 277 277 276 276 278 278 278 278 277 276
285 286 285 284 284 286 287 285 283 283 285 285 285 285 283 281 279 279 279 280 281 283 283 281 280 279 277 276 276 276 276 276 278 278 279 279 278 277
282 284 283 282 282 284 286 286 284 283 283 284 284 282 282 282 282 282 280 280 283 284 284 280 280 280 280 278 277 277 276 276 277 277 278 279 277 276
279 279 280 280 280 283 284 286 286 284 285 286 284 281 279 279 282 283 281 281 283 284 284 281 282 281 280 279 277 275 275 276 277 277 278 278 278 277
277 278 279 278 278 280 282 283 285 285 285 287 286 281 279 279 281 282 283 281 280 282 282 281 281 282 279 278 277 275 274 276 277 277 277 277 277 276
279 278 278 279 279 280 281 282 285 286 287 288 285 282 280 280 281 281 282 283 283 282 281 281 280 280 279 278 277 275 273 274 276 276 275 274 275 274
281 280 279 280 281 281 281 284 284 283 284 287 286 285 284 282 282 281 282 283 283 284 281 280 279 280 279 277 275 273 273 273 274 274 274 273 273 274
283 281 281 282 283 281 281 282 283 282 282 285 285 285 284 284 283 283 284 284 283 284 283 281 280 280 279 277 273 271 271 272 273 273 272 272 273 272
285 283 282 282 282 283 283 282 283 282 283 284 285 286 285 283 283 283 283 283 282 283 281 281 281 281 280 278 275 274 273 271 271 273 273 272 271 270
286 285 283 282 282 282 282 283 283 283 285 285 286 286 285 284 284 284 284 283 283 283 281 281 281 280 281 280 276 275 274 272 269 271 272 272 270 269
289 286 286 285 284 283 283 284 285 284 285 286 287 287 286 285 284 284 284 285 285 283 283 283 283 282 281 281 279 277 276 276 273 270 270 271 272 271
291 290 289 287 286 285 284 285 286 286 285 285 286 288 288 287 286 284 283 284 286 286 287 286 284 284 282 281 281 280 278 276 274 271 271 271 271 271
289 290 291 289 288 288 287 286 286 287 286 286 287 288 288 287 287 284 283 284 286 286 286 285 283 284 283 282 282 281 279 277 276 274 271 270 268 268
292 291 291 292 290 289 289 289 289 288 286 286 286 287 288 287 286 284 284 286 287 286 285 284 283 283 283 282 282 281 280 277 276 275 271 270 269 267
294 292 290 290 292 291 291 291 290 289 287 287 287 288 289 287 286 286 285 287 286 286 286 284 283 283 282 282 282 281 280 277 275 274 272 270 268 266
294 293 291 291 292 293 294 292 290 289 289 288 288 288 288 287 287 288 288 287 287 286 287 286 284 284 282 282 280 278 276 274 274 273 272 268 267 267
293 293 293 292 293 294 294 293 291 290 290 289 288 287 287 288 288 287 287 288 287 288 289 288 285 284 283 280 279 277 274 271 271 271 269 268 267 267
292 292 292 293 294 295 295 293 293 292 291 290 290 289 287 288 289 289 288 288 289 289 289 289 287 284 282 279 278 275 271 270 268 269 269 268 268 268
291 291 291 293 294 294 294 293 292 293 293 293 292 291 291 290 289 289 289 290 290 289 289 288 286 283 280 277 276 273 271 269 268 269 270 268 266 266
Height
5867 5866 5865 5864 5863 5861 5860 5859 5858 5857 5856 5854 5853 5851 5850 5850 5849 5848 5847 5847 5846 5846 5845 5845 5844 5844 5844 5843 5843 5843 5842 5842 5842 5842 5842 5841 5841 5841
5863 5862 5860 5859 5858 5856 5855 5854 5853 5852 5851 5849 5848 5846 5845 5844 5843 5843 5842 5841 5840 5840 5839 5838 5838 5838 5838 5837 5837 5837 5836 5836 5835 5835 5835 5835 5834 5834
5858 5856 5855 5854 5852 5851 5850 5848 5847 5846 5845 5844 5842 5840 5839 5838 5838 5837 5836 5835 5834 5833 5833 5832 5832 5831 5831 5831 5830 5830 5830 5829 5829 5828 5828 5828 5828 5827
5852 5851 5849 5848 5846 5845 5844 5843 5841 5840 5839 5838 5836 5834 5833 5832 5831 5831 5830 5829 5828 5827 5826 5825 5825 5825 5824 5824 5824 5823 5823 5822 5822 5822 5821 5821 5821 5820
5846 5845 5844 5842 5840 5839 5838 5836 5835 5834 5832 5831 5830 5828 5827 5826 5825 5824 5823 5822 5821 5820 5819 5818 5818 5818 5817 5817 5817 5816 5816 5816 5815 5815 5815 5814 5814 5813
5840 5839 5837 5836 5834 5833 5831 5830 5828 5827 5825 5824 5823 5822 5821 5819 5818 5817 5816 5815 5814 5813 5812 5811 5811 5810 5810 5810 5809 5809 5809 5808 5808 5808 5807 5807 5806 5806
5833 5832 5830 5829 5828 5826 5825 5823 5821 5819 5818 5817 5816 5815 5814 5812 5811 5810 5809 5808 5807 5806 5805 5804 5804 5803 5802 5802 5802 5801 5801 5801 5801 5800 5799 5799 5799 5798
5825 5824 5822 5821 5820 5819 5817 5815 5814 5812 5810 5809 5808 5807 5806 5805 5804 5803 5802 5801 5800 5799 5798 5797 5796 5795 5794 5794 5794 5793 5793 5793 5793 5792 5792 5791 5791 5791
5817 5815 5814 5813 5812 5811 5809 5808 5806 5804 5803 5801 5800 5798 5798 5797 5796 5795 5794 5793 5792 5791 5790 5789 5788 5787 5786 5786 5785 5785 5785 5785 5785 5784 5784 5783 5783 5783
5808 5807 5805 5804 5803 5802 5801 5800 5798 5797 5795 5793 5792 5790 5789 5789 5788 5787 5786 5785 5784 5783 5782 5781 5780 5779 5777 5777 5777 5776 5776 5776 5776 5775 5775 5775 5775 5775
5799 5798 5797 5796 5795 5794 5793 5791 5790 5788 5787 5786 5784 5783 5782 5781 5780 5779 5778 5777 5776 5775 5773 5772 5771 5770 5769 5768 5768 5767 5767 5767 5767 5766 5766 5766 5766 5766
5791 5790 5789 5787 5786 5785 5784 5783 5782 5781 5779 5778 5777 5775 5774 5773 5772 5771 5769 5768 5767 5766 5765 5764 5763 5762 5761 5760 5759 5758 5758 5758 5757 5757 5757 5757 5757 5757
5783 5782 5780 5779 5778 5777 5776 5775 5774 5772 5771 5770 5768 5767 5766 5764 5763 5762 5761 5760 5758 5757 5756 5755 5754 5753 5752 5751 5750 5749 5749 5748 5748 5748 5748 5748 5748 5749
5775 5774 5772 5771 5770 5769 5768 5766 5765 5764 5763 5761 5760 5759 5757 5756 5754 5753 5752 5750 5749 5748 5747 5746 5745 5744 5743 5742 5741 5741 5740 5739 5739 5739 5739 5739 5740 5740
5767 5766 5764 5763 5762 5761 5759 5758 5756 5755 5754 5753 5752 5750 5749 5747 5746 5744 5743 5742 5740 5739 5738 5737 5736 5735 5734 5733 5732 5732 5731 5731 5730 5730 5730 5731 5731 5732
5760 5758 5757 5755 5754 5752 5751 5749 5748 5747 5746 5745 5743 5742 5740 5739 5737 5736 5734 5733 5732 5730 5728 5727 5726 5726 5725 5724 5723 5723 5722 5722 5722 5721 5722 5722 5722 5723
5753 5751 5749 5748 5746 5744 5743 5741 5740 5739 5737 5736 5735 5733 5732 5730 5729 5727 5726 5724 5723 5722 5720 5718 5717 5716 5716 5715 5715 5714 5713 5713 5713 5713 5713 5713 5713 5714
5746 5744 5742 5740 5739 5737 5735 5734 5732 5731 5729 5728 5726 5725 5723 5722 5720 5719 5717 5716 5714 5713 5712 5710 5708 5708 5707 5707 5706 5706 5705 5704 5704 5704 5704 5704 5705 5706
5738 5736 5735 5733 5731 5729 5727 5726 5724 5722 5721 5719 5718 5716 5715 5713 5711 5710 5708 5707 5705 5704 5703 5701 5700 5699 5698 5698 5698 5696 5696 5695 5695 5695 5695 5696 5697 5697
5730 5728 5727 5725 5723 5721 5719 5717 5716 5714 5712 5711 5709 5708 5706 5704 5703 5701 5700 5698 5697 5695 5694 5692 5691 5690 5689 5689 5688 5687 5687 5687 5687 5687 5687 5688 5688 5689
5722 5721 5719 5717 5715 5713 5711 5709 5708 5706 5704 5702 5701 5699 5697 5696 5694 5693 5691 5689 5688 5687 5685 5683 5682 5680 5679 5679 5679 5679 5678 5678 5678 5679 5679 5680 5681 5682
5714 5713 5711 5709 5707 5705 5703 5701 5699 5698 5696 5694 5692 5690 5689 5687 5686 5684 5682 5681 5679 5677 5676 5674 5672 5671 5670 5669 5669 5669 5670 5670 5670 5670 5671 5672 5673 5674
5706 5704 5702 5701 5699 5697 5695 5693 5691 5689 5687 5685 5684 5682 5680 5678 5677 5675 5673 5671 5670 5668 5666 5665 5663 5662 5661 5660 5660 5661 5661 5661 5662 5662 5663 5664 5665 5666